Location: Peebles
(55.6412°N, 3.1714°W)
Time: 06:36:22
(UTC+01:00)

NOAA 16 DEB - Pass Details

Date: 05 July 2022
Orbit: 836 x 886 km, 98.9° (Epoch: 10 August)

Event Time Altitude Azimuth Distance (km) Brightness Sun altitude
Exits shadow 00:54:52 - 226° (SW) 3,385 ? -11.4°
Rises 00:54:53 0° 226° (SW) 3,382 ? -11.4°
Reaches altitude 10° 00:58:56 10° 256° (WSW) 2,454 ? -11.5°
Maximum altitude 01:01:01 12° 279° (W) 2,306 ? -11.5°
Drops below altitude 10° 01:03:07 10° 302° (WNW) 2,463 ? -11.5°
Sets 01:07:13 0° 332° (NNW) 3,409 ? -11.5°
